Year,Month,Day,Hour,Minute,Value (Times are PST for temperature in C)
2015,07,19,00,00,21.10
2015,07,19,00,01,21.10
2015,07,19,00,02,21.10
2015,07,19,00,03,21.10
2015,07,19,00,04,21.10
2015,07,19,00,05,21.00
2015,07,19,00,06,21.00
2015,07,19,00,07,21.00
2015,07,19,00,08,20.90
2015,07,19,00,09,20.90
2015,07,19,00,10,20.90
2015,07,19,00,11,20.90
2015,07,19,00,12,20.90
2015,07,19,00,13,20.90
2015,07,19,00,14,20.90
2015,07,19,00,15,20.80
2015,07,19,00,16,20.80
2015,07,19,00,17,20.80
2015,07,19,00,18,20.80
2015,07,19,00,19,20.80
2015,07,19,00,20,20.70
2015,07,19,00,21,20.70
2015,07,19,00,22,20.70
2015,07,19,00,23,20.70
2015,07,19,00,24,20.60
2015,07,19,00,25,20.60
2015,07,19,00,26,20.50
2015,07,19,00,27,20.50
2015,07,19,00,28,20.40
2015,07,19,00,29,20.40
2015,07,19,00,30,20.30
2015,07,19,00,31,20.30
2015,07,19,00,32,20.20
2015,07,19,00,33,20.20
2015,07,19,00,34,20.20
2015,07,19,00,35,20.20
2015,07,19,00,36,20.10
2015,07,19,00,37,20.10
2015,07,19,00,38,20.10
2015,07,19,00,39,20.10
2015,07,19,00,40,20.00
2015,07,19,00,41,20.00
2015,07,19,00,42,19.90
2015,07,19,00,43,19.90
2015,07,19,00,44,19.90
2015,07,19,00,45,19.90
2015,07,19,00,46,19.80
2015,07,19,00,47,19.80
2015,07,19,00,48,19.80
2015,07,19,00,49,19.80
2015,07,19,00,50,19.80
2015,07,19,00,51,19.80
2015,07,19,00,52,19.80
2015,07,19,00,53,19.80
2015,07,19,00,54,19.80
2015,07,19,00,55,19.80
2015,07,19,00,56,19.80
2015,07,19,00,57,19.80
2015,07,19,00,58,19.80
2015,07,19,00,59,19.80
2015,07,19,01,00,19.80
2015,07,19,01,01,19.80
2015,07,19,01,02,19.80
2015,07,19,01,03,19.80
2015,07,19,01,04,19.80
2015,07,19,01,05,19.80
2015,07,19,01,06,19.80
2015,07,19,01,07,19.80
2015,07,19,01,08,19.80
2015,07,19,01,09,19.70
2015,07,19,01,10,19.70
2015,07,19,01,11,19.70
2015,07,19,01,12,19.70
2015,07,19,01,13,19.70
2015,07,19,01,14,19.70
2015,07,19,01,15,19.70
2015,07,19,01,16,19.70
2015,07,19,01,17,19.70
2015,07,19,01,18,19.60
2015,07,19,01,19,19.60
2015,07,19,01,20,19.50
2015,07,19,01,21,19.50
2015,07,19,01,22,19.40
2015,07,19,01,23,19.40
2015,07,19,01,24,19.30
2015,07,19,01,25,19.30
2015,07,19,01,26,19.30
2015,07,19,01,27,19.30
2015,07,19,01,28,19.30
2015,07,19,01,29,19.30
2015,07,19,01,30,19.20
2015,07,19,01,31,19.20
2015,07,19,01,32,19.20
2015,07,19,01,33,19.20
2015,07,19,01,34,19.20
2015,07,19,01,35,19.20
2015,07,19,01,36,19.20
2015,07,19,01,37,19.20
2015,07,19,01,38,19.20
2015,07,19,01,39,19.20
2015,07,19,01,40,19.20
2015,07,19,01,41,19.20
2015,07,19,01,42,19.10
2015,07,19,01,43,19.10
2015,07,19,01,44,19.10
2015,07,19,01,45,19.10
2015,07,19,01,46,19.10
2015,07,19,01,47,19.10
2015,07,19,01,48,19.10
2015,07,19,01,49,19.10
2015,07,19,01,50,19.10
2015,07,19,01,51,19.10
2015,07,19,01,52,19.10
2015,07,19,01,53,19.00
2015,07,19,01,54,19.00
2015,07,19,01,55,19.00
2015,07,19,01,56,19.00
2015,07,19,01,57,19.00
2015,07,19,01,58,19.00
2015,07,19,01,59,19.00
2015,07,19,02,00,19.00
2015,07,19,02,01,19.10
2015,07,19,02,02,19.10
2015,07,19,02,03,19.10
2015,07,19,02,04,19.20
2015,07,19,02,05,19.30
2015,07,19,02,06,19.30
2015,07,19,02,07,19.30
2015,07,19,02,08,19.30
2015,07,19,02,09,19.40
2015,07,19,02,10,19.40
2015,07,19,02,11,19.40
2015,07,19,02,12,19.30
2015,07,19,02,13,19.30
2015,07,19,02,14,19.30
2015,07,19,02,15,19.20
2015,07,19,02,16,19.20
2015,07,19,02,17,19.20
2015,07,19,02,18,19.20
2015,07,19,02,19,19.10
2015,07,19,02,20,19.10
2015,07,19,02,21,19.10
2015,07,19,02,22,19.10
2015,07,19,02,23,19.10
2015,07,19,02,24,19.10
2015,07,19,02,25,19.10
2015,07,19,02,26,19.10
2015,07,19,02,27,19.00
2015,07,19,02,28,19.00
2015,07,19,02,29,19.00
2015,07,19,02,30,18.90
2015,07,19,02,31,18.90
2015,07,19,02,32,18.90
2015,07,19,02,33,18.90
2015,07,19,02,34,18.90
2015,07,19,02,35,18.90
2015,07,19,02,36,18.80
2015,07,19,02,37,18.80
2015,07,19,02,38,18.80
2015,07,19,02,39,18.80
2015,07,19,02,40,18.80
2015,07,19,02,41,18.80
2015,07,19,02,42,18.70
2015,07,19,02,43,18.70
2015,07,19,02,44,18.70
2015,07,19,02,45,18.70
2015,07,19,02,46,18.70
2015,07,19,02,47,18.70
2015,07,19,02,48,18.70
2015,07,19,02,49,18.70
2015,07,19,02,50,18.70
2015,07,19,02,51,18.70
2015,07,19,02,52,18.70
2015,07,19,02,53,18.60
2015,07,19,02,54,18.60
2015,07,19,02,55,18.50
2015,07,19,02,56,18.50
2015,07,19,02,57,18.40
2015,07,19,02,58,18.30
2015,07,19,02,59,18.30
2015,07,19,03,00,18.20
2015,07,19,03,01,18.30
2015,07,19,03,02,18.20
2015,07,19,03,06,18.10
2015,07,19,03,07,18.10
2015,07,19,03,08,18.10
2015,07,19,03,09,18.10
2015,07,19,03,10,18.10
2015,07,19,03,11,18.10
2015,07,19,03,12,18.10
2015,07,19,03,13,18.10
2015,07,19,03,14,18.10
2015,07,19,03,15,18.10
2015,07,19,03,16,18.20
2015,07,19,03,17,18.20
2015,07,19,03,18,18.30
2015,07,19,03,19,18.30
2015,07,19,03,20,18.40
2015,07,19,03,21,18.40
2015,07,19,03,22,18.40
2015,07,19,03,23,18.40
2015,07,19,03,24,18.40
2015,07,19,03,25,18.40
2015,07,19,03,26,18.40
2015,07,19,03,27,18.30
2015,07,19,03,28,18.30
2015,07,19,03,29,18.30
2015,07,19,03,30,18.30
2015,07,19,03,31,18.30
2015,07,19,03,32,18.30
2015,07,19,03,33,18.30
2015,07,19,03,34,18.30
2015,07,19,03,35,18.30
2015,07,19,03,36,18.30
2015,07,19,03,37,18.30
2015,07,19,03,38,18.30
2015,07,19,03,39,18.30
2015,07,19,03,40,18.30
2015,07,19,03,41,18.30
2015,07,19,03,42,18.20
2015,07,19,03,43,18.20
2015,07,19,03,44,18.20
2015,07,19,03,45,18.20
2015,07,19,03,46,18.20
2015,07,19,03,47,18.10
2015,07,19,03,48,18.10
2015,07,19,03,49,18.00
2015,07,19,03,50,18.00
2015,07,19,03,51,17.90
2015,07,19,03,52,17.90
2015,07,19,03,53,17.80
2015,07,19,03,54,17.80
2015,07,19,03,55,17.80
2015,07,19,03,56,17.80
2015,07,19,03,57,17.80
2015,07,19,03,58,17.80
2015,07,19,03,59,17.80
2015,07,19,04,00,17.80
2015,07,19,04,01,17.80
2015,07,19,04,02,17.80
2015,07,19,04,03,17.80
2015,07,19,04,04,17.80
2015,07,19,04,05,17.80
2015,07,19,04,06,17.80
2015,07,19,04,07,17.70
2015,07,19,04,08,17.70
2015,07,19,04,09,17.70
2015,07,19,04,10,17.70
2015,07,19,04,11,17.70
2015,07,19,04,12,17.60
2015,07,19,04,13,17.60
2015,07,19,04,14,17.60
2015,07,19,04,15,17.60
2015,07,19,04,16,17.70
2015,07,19,04,17,17.80
2015,07,19,04,18,17.80
2015,07,19,04,19,17.80
2015,07,19,04,20,17.80
2015,07,19,04,21,17.80
2015,07,19,04,22,17.80
2015,07,19,04,23,17.80
2015,07,19,04,24,17.80
2015,07,19,04,25,17.80
2015,07,19,04,26,17.90
2015,07,19,04,27,17.90
2015,07,19,04,28,17.90
2015,07,19,04,29,17.90
2015,07,19,04,30,17.90
2015,07,19,04,31,17.90
2015,07,19,04,32,17.90
2015,07,19,04,33,17.90
2015,07,19,04,34,17.80
2015,07,19,04,35,17.80
2015,07,19,04,36,17.80
2015,07,19,04,37,17.80
2015,07,19,04,38,17.80
2015,07,19,04,39,17.80
2015,07,19,04,40,17.70
2015,07,19,04,41,17.70
2015,07,19,04,42,17.70
2015,07,19,04,43,17.60
2015,07,19,04,44,17.60
2015,07,19,04,45,17.60
2015,07,19,04,46,17.50
2015,07,19,04,47,17.50
2015,07,19,04,48,17.40
2015,07,19,04,49,17.30
2015,07,19,04,50,17.30
2015,07,19,04,51,17.30
2015,07,19,04,52,17.30
2015,07,19,04,53,17.30
2015,07,19,04,54,17.30
2015,07,19,04,55,17.30
2015,07,19,04,56,17.30
2015,07,19,04,57,17.30
2015,07,19,04,58,17.30
2015,07,19,04,59,17.30
2015,07,19,05,00,17.30
2015,07,19,05,01,17.30
2015,07,19,05,02,17.30
2015,07,19,05,03,17.30
2015,07,19,05,04,17.30
2015,07,19,05,05,17.30
2015,07,19,05,06,17.30
2015,07,19,05,07,17.30
2015,07,19,05,08,17.30
2015,07,19,05,09,17.20
2015,07,19,05,10,17.20
2015,07,19,05,11,17.20
2015,07,19,05,12,17.20
2015,07,19,05,13,17.10
2015,07,19,05,14,17.10
2015,07,19,05,15,17.10
2015,07,19,05,16,17.10
2015,07,19,05,17,17.00
2015,07,19,05,18,17.00
2015,07,19,05,19,17.00
2015,07,19,05,20,17.00
2015,07,19,05,21,17.00
2015,07,19,05,22,17.00
2015,07,19,05,23,16.90
2015,07,19,05,24,16.90
2015,07,19,05,25,16.90
2015,07,19,05,26,17.00
2015,07,19,05,27,16.90
2015,07,19,05,28,16.90
2015,07,19,05,29,16.90
2015,07,19,05,30,16.90
2015,07,19,05,31,16.90
2015,07,19,05,32,16.90
2015,07,19,05,33,16.90
2015,07,19,05,34,16.90
2015,07,19,05,35,16.90
2015,07,19,05,36,16.90
2015,07,19,05,37,16.90
2015,07,19,05,38,16.90
2015,07,19,05,39,16.90
2015,07,19,07,54,22.30
2015,07,19,07,55,22.40
2015,07,19,07,56,22.40
2015,07,19,07,57,22.50
2015,07,19,07,58,22.50
2015,07,19,07,59,22.60
2015,07,19,08,00,22.70
2015,07,19,08,01,22.70
2015,07,19,08,02,22.70
2015,07,19,08,03,22.80
2015,07,19,08,04,22.80
2015,07,19,08,05,22.90
2015,07,19,08,06,22.90
2015,07,19,08,07,23.00
2015,07,19,08,08,23.00
2015,07,19,08,09,23.10
2015,07,19,08,10,23.20
2015,07,19,08,11,23.20
2015,07,19,08,12,23.30
2015,07,19,08,13,23.30
2015,07,19,08,14,23.40
2015,07,19,08,15,23.50
2015,07,19,08,16,23.50
2015,07,19,08,17,23.60
2015,07,19,08,18,23.60
2015,07,19,08,19,23.60
2015,07,19,08,20,23.60
2015,07,19,08,21,23.70
2015,07,19,08,22,23.70
2015,07,19,08,23,23.70
2015,07,19,08,24,23.70
2015,07,19,08,25,23.70
2015,07,19,08,26,23.70
2015,07,19,08,27,23.50
2015,07,19,08,28,23.40
2015,07,19,08,29,23.30
2015,07,19,08,30,23.20
2015,07,19,08,31,23.10
2015,07,19,08,32,23.10
2015,07,19,08,33,23.10
2015,07,19,08,34,23.20
2015,07,19,08,35,23.20
2015,07,19,08,36,23.30
2015,07,19,08,37,23.30
2015,07,19,08,38,23.30
2015,07,19,08,39,23.40
2015,07,19,08,40,23.40
2015,07,19,08,41,23.40
2015,07,19,08,42,23.40
2015,07,19,08,43,23.50
2015,07,19,08,44,23.60
2015,07,19,08,45,23.70
2015,07,19,08,46,23.80
2015,07,19,08,47,23.90
2015,07,19,08,48,24.00
2015,07,19,08,49,24.10
2015,07,19,08,50,24.10
2015,07,19,08,51,24.20
2015,07,19,08,52,24.30
2015,07,19,08,53,24.30
2015,07,19,08,54,24.30
2015,07,19,08,55,24.30
2015,07,19,08,56,24.30
2015,07,19,08,57,24.30
2015,07,19,08,58,24.20
2015,07,19,08,59,24.20
2015,07,19,09,00,24.10
2015,07,19,09,01,24.10
2015,07,19,09,02,24.00
2015,07,19,09,03,24.00
2015,07,19,09,04,23.90
2015,07,19,09,05,23.90
2015,07,19,09,06,23.90
2015,07,19,09,07,23.90
2015,07,19,09,08,23.90
2015,07,19,09,09,23.90
2015,07,19,09,10,24.00
2015,07,19,09,11,24.10
2015,07,19,09,12,24.30
2015,07,19,09,13,24.50
2015,07,19,09,14,24.70
2015,07,19,09,15,25.00
2015,07,19,09,16,25.10
2015,07,19,09,17,25.10
2015,07,19,09,18,25.10
2015,07,19,09,19,25.00
2015,07,19,09,20,25.00
2015,07,19,09,21,25.00
2015,07,19,09,22,25.00
2015,07,19,09,23,25.10
2015,07,19,09,24,25.10
2015,07,19,09,25,25.20
2015,07,19,09,26,25.30
2015,07,19,09,27,25.30
2015,07,19,09,28,25.30
2015,07,19,09,29,25.30
2015,07,19,09,30,25.40
2015,07,19,09,31,25.40
2015,07,19,09,32,25.40
2015,07,19,09,33,25.40
2015,07,19,09,34,25.30
2015,07,19,09,35,25.30
2015,07,19,09,36,25.30
2015,07,19,09,37,25.30
2015,07,19,09,38,25.30
2015,07,19,09,39,25.30
2015,07,19,09,40,25.30
2015,07,19,09,41,25.20
2015,07,19,09,42,25.10
2015,07,19,09,43,25.00
2015,07,19,09,44,25.00
2015,07,19,09,45,25.00
2015,07,19,09,46,24.90
2015,07,19,09,47,24.80
2015,07,19,09,48,24.70
2015,07,19,09,49,24.70
2015,07,19,09,50,24.70
2015,07,19,09,51,24.80
2015,07,19,09,52,24.90
2015,07,19,09,53,24.90
2015,07,19,09,54,25.00
2015,07,19,09,55,25.00
2015,07,19,09,56,25.10
2015,07,19,09,57,25.20
2015,07,19,09,58,25.30
2015,07,19,09,59,25.50
2015,07,19,10,00,25.60
2015,07,19,10,01,25.50
2015,07,19,10,02,25.40
2015,07,19,10,03,25.40
2015,07,19,10,04,25.50
2015,07,19,10,05,25.50
2015,07,19,10,06,25.60
2015,07,19,10,07,25.70
2015,07,19,10,08,25.70
2015,07,19,10,09,25.70
2015,07,19,10,10,25.60
2015,07,19,10,11,25.50
2015,07,19,10,12,25.30
2015,07,19,10,13,25.30
2015,07,19,10,14,25.30
2015,07,19,10,15,25.30
2015,07,19,10,16,25.40
2015,07,19,10,17,25.50
2015,07,19,10,18,25.60
2015,07,19,10,19,25.60
2015,07,19,10,20,25.50
2015,07,19,10,21,25.40
2015,07,19,10,22,25.40
2015,07,19,10,23,25.50
2015,07,19,10,24,25.40
2015,07,19,10,25,25.40
2015,07,19,10,26,25.30
2015,07,19,10,27,25.30
2015,07,19,10,28,25.30
2015,07,19,10,29,25.40
2015,07,19,10,30,25.40
2015,07,19,10,31,25.40
2015,07,19,10,32,25.50
2015,07,19,10,33,25.60
2015,07,19,10,34,25.60
2015,07,19,10,35,25.60
2015,07,19,10,36,25.70
2015,07,19,10,37,25.80
2015,07,19,10,38,25.90
2015,07,19,10,39,25.90
2015,07,19,10,40,25.70
2015,07,19,10,41,25.70
2015,07,19,10,42,25.70
2015,07,19,10,43,25.70
2015,07,19,10,44,25.70
2015,07,19,10,45,25.80
2015,07,19,10,46,25.90
2015,07,19,10,47,25.90
2015,07,19,10,48,25.90
2015,07,19,10,49,25.90
2015,07,19,10,50,26.00
2015,07,19,10,51,26.10
2015,07,19,10,52,26.20
2015,07,19,10,53,26.20
2015,07,19,10,54,26.20
2015,07,19,10,55,26.10
2015,07,19,10,56,26.10
2015,07,19,10,57,26.10
2015,07,19,10,58,26.00
2015,07,19,10,59,25.90
2015,07,19,11,00,25.90
2015,07,19,11,01,25.90
2015,07,19,11,02,25.90
2015,07,19,11,03,25.90
2015,07,19,11,04,25.90
2015,07,19,11,05,25.80
2015,07,19,11,06,25.80
2015,07,19,11,07,25.70
2015,07,19,11,08,25.70
2015,07,19,11,09,25.60
2015,07,19,11,10,25.60
2015,07,19,11,11,25.60
2015,07,19,11,12,25.70
2015,07,19,11,13,25.70
2015,07,19,11,14,25.80
2015,07,19,11,15,25.70
2015,07,19,11,16,25.70
2015,07,19,11,17,25.70
2015,07,19,11,18,25.70
2015,07,19,11,19,25.60
2015,07,19,11,20,25.60
2015,07,19,11,21,25.60
2015,07,19,11,22,25.60
2015,07,19,11,23,25.70
2015,07,19,11,24,25.70
2015,07,19,11,25,25.70
2015,07,19,11,26,25.60
2015,07,19,11,27,25.60
2015,07,19,11,28,25.60
2015,07,19,11,29,25.60
2015,07,19,11,30,25.60
2015,07,19,11,31,25.60
2015,07,19,11,32,25.70
2015,07,19,11,33,25.80
2015,07,19,11,34,25.90
2015,07,19,11,35,26.00
2015,07,19,11,36,26.00
2015,07,19,11,37,26.10
2015,07,19,11,38,26.20
2015,07,19,11,39,26.30
2015,07,19,11,40,26.50
2015,07,19,11,41,26.60
2015,07,19,11,42,26.70
2015,07,19,11,43,26.80
2015,07,19,11,44,26.90
2015,07,19,11,45,27.00
2015,07,19,11,46,26.90
2015,07,19,11,47,26.80
2015,07,19,11,48,26.80
2015,07,19,11,49,26.80
2015,07,19,11,50,26.70
2015,07,19,11,51,26.60
2015,07,19,11,52,26.60
2015,07,19,11,53,26.60
2015,07,19,11,54,26.50
2015,07,19,11,55,26.40
2015,07,19,11,56,26.40
2015,07,19,11,57,26.50
2015,07,19,11,58,26.60
2015,07,19,11,59,26.70
2015,07,19,12,00,26.80
2015,07,19,12,01,26.80
2015,07,19,12,02,26.80
2015,07,19,12,03,26.80
2015,07,19,12,04,26.90
2015,07,19,12,05,27.00
2015,07,19,12,06,27.00
2015,07,19,12,07,27.00
2015,07,19,12,08,26.90
2015,07,19,12,09,26.80
2015,07,19,12,10,26.70
2015,07,19,12,11,26.60
2015,07,19,12,12,26.60
2015,07,19,12,13,26.70
2015,07,19,12,14,26.80
2015,07,19,12,15,26.90
2015,07,19,12,16,26.90
2015,07,19,12,17,26.90
2015,07,19,12,18,26.90
2015,07,19,12,19,27.00
2015,07,19,12,20,27.10
2015,07,19,12,21,27.30
2015,07,19,12,22,27.40
2015,07,19,12,23,27.40
2015,07,19,12,24,27.30
2015,07,19,12,25,27.30
2015,07,19,12,26,27.20
2015,07,19,12,27,27.20
2015,07,19,12,28,27.30
2015,07,19,12,29,27.30
2015,07,19,12,30,27.30
2015,07,19,12,31,27.20
2015,07,19,12,32,27.10
2015,07,19,12,33,27.00
2015,07,19,12,34,27.10
2015,07,19,12,35,27.10
2015,07,19,12,36,27.10
2015,07,19,12,37,27.20
2015,07,19,12,38,27.20
2015,07,19,12,39,27.40
2015,07,19,12,40,27.40
2015,07,19,12,41,27.50
2015,07,19,12,42,27.60
2015,07,19,12,43,27.60
2015,07,19,12,44,27.50
2015,07,19,12,45,27.40
2015,07,19,12,46,27.50
2015,07,19,12,47,27.60
2015,07,19,12,48,27.60
2015,07,19,12,49,27.50
2015,07,19,12,50,27.40
2015,07,19,12,51,27.30
2015,07,19,12,52,27.30
2015,07,19,12,53,27.40
2015,07,19,12,54,27.50
2015,07,19,12,55,27.60
2015,07,19,12,56,27.70
2015,07,19,12,57,27.70
2015,07,19,12,58,27.70
2015,07,19,12,59,27.70
2015,07,19,13,00,27.60
2015,07,19,13,01,27.50
2015,07,19,13,02,27.40
2015,07,19,13,03,27.40
2015,07,19,13,04,27.20
2015,07,19,13,05,27.00
2015,07,19,13,06,27.00
2015,07,19,13,07,27.00
2015,07,19,13,08,27.10
2015,07,19,13,09,27.00
2015,07,19,13,10,27.00
2015,07,19,13,11,27.20
2015,07,19,13,12,27.30
2015,07,19,13,13,27.30
2015,07,19,13,14,27.40
2015,07,19,13,15,27.40
2015,07,19,13,16,27.40
2015,07,19,13,17,27.30
2015,07,19,13,18,27.30
2015,07,19,13,19,27.30
2015,07,19,13,20,27.30
2015,07,19,13,21,27.30
2015,07,19,13,22,27.40
2015,07,19,13,23,27.50
2015,07,19,13,24,27.50
2015,07,19,13,25,27.40
2015,07,19,13,26,27.30
2015,07,19,13,27,27.40
2015,07,19,13,28,27.50
2015,07,19,13,29,27.80
2015,07,19,13,30,27.90
2015,07,19,13,31,28.00
2015,07,19,13,32,27.90
2015,07,19,13,33,27.90
2015,07,19,13,34,27.90
2015,07,19,13,35,28.00
2015,07,19,13,36,28.10
2015,07,19,13,37,28.10
2015,07,19,13,38,28.20
2015,07,19,13,39,28.20
2015,07,19,13,40,28.20
2015,07,19,13,41,28.20
2015,07,19,13,42,28.20
2015,07,19,13,43,28.20
2015,07,19,13,44,28.20
2015,07,19,13,45,28.20
2015,07,19,13,46,28.30
2015,07,19,13,47,28.40
2015,07,19,13,48,28.40
2015,07,19,13,49,28.40
2015,07,19,13,50,28.40
2015,07,19,13,51,28.40
2015,07,19,13,52,28.30
2015,07,19,13,53,28.10
2015,07,19,13,54,28.10
2015,07,19,13,55,28.10
2015,07,19,13,56,28.20
2015,07,19,13,57,28.30
2015,07,19,13,58,28.40
2015,07,19,13,59,28.50
2015,07,19,14,00,28.50
2015,07,19,14,01,28.60
2015,07,19,14,02,28.60
2015,07,19,14,03,28.60
2015,07,19,14,04,28.70
2015,07,19,14,05,28.70
2015,07,19,14,06,28.70
2015,07,19,14,07,28.70
2015,07,19,14,08,28.70
2015,07,19,14,09,28.70
2015,07,19,14,10,28.70
2015,07,19,14,11,28.70
2015,07,19,14,12,28.80
2015,07,19,14,13,28.80
2015,07,19,14,14,29.00
2015,07,19,14,15,29.10
2015,07,19,14,16,29.10
2015,07,19,14,17,29.10
2015,07,19,14,18,29.10
2015,07,19,14,19,29.20
2015,07,19,14,20,29.30
2015,07,19,14,21,29.50
2015,07,19,14,22,29.50
2015,07,19,14,23,29.60
2015,07,19,14,24,29.70
2015,07,19,14,25,29.80
2015,07,19,14,26,29.80
2015,07,19,14,27,29.70
2015,07,19,14,28,29.70
2015,07,19,14,29,29.70
2015,07,19,14,30,29.70
2015,07,19,14,31,29.70
2015,07,19,14,32,29.80
2015,07,19,14,33,29.90
2015,07,19,14,34,29.90
2015,07,19,14,35,29.90
2015,07,19,14,36,29.90
2015,07,19,14,37,29.90
2015,07,19,14,38,29.90
2015,07,19,14,39,30.00
2015,07,19,14,40,30.00
2015,07,19,14,41,30.10
2015,07,19,14,42,30.10
2015,07,19,14,43,30.10
2015,07,19,14,44,30.10
2015,07,19,14,45,30.00
2015,07,19,14,46,30.00
2015,07,19,14,47,30.00
2015,07,19,14,48,29.90
2015,07,19,14,49,30.00
2015,07,19,14,50,30.10
2015,07,19,14,51,30.10
2015,07,19,14,52,30.10
2015,07,19,14,53,30.10
2015,07,19,14,54,30.20
2015,07,19,14,55,30.30
2015,07,19,14,56,30.30
2015,07,19,14,57,30.30
2015,07,19,14,58,30.20
2015,07,19,14,59,30.20
2015,07,19,15,00,30.20
2015,07,19,15,01,30.10
2015,07,19,15,02,30.10
2015,07,19,15,03,30.10
2015,07,19,15,04,30.20
2015,07,19,15,05,30.20
2015,07,19,15,06,30.30
2015,07,19,15,07,30.20
2015,07,19,15,08,30.20
2015,07,19,15,09,30.30
2015,07,19,15,10,30.30
2015,07,19,15,11,30.40
2015,07,19,15,12,30.50
2015,07,19,15,13,30.60
2015,07,19,15,14,30.60
2015,07,19,15,15,30.60
2015,07,19,15,16,30.60
2015,07,19,15,17,30.60
2015,07,19,15,18,30.50
2015,07,19,15,19,30.50
2015,07,19,15,20,30.40
2015,07,19,15,21,30.40
2015,07,19,15,22,30.40
2015,07,19,15,23,30.50
2015,07,19,15,24,30.60
2015,07,19,15,25,30.60
2015,07,19,15,26,30.70
2015,07,19,15,27,30.50
2015,07,19,15,28,30.40
2015,07,19,15,29,30.40
2015,07,19,15,30,30.30
2015,07,19,15,31,30.30
2015,07,19,15,32,30.20
2015,07,19,15,33,30.10
2015,07,19,15,34,30.00
2015,07,19,15,35,29.90
2015,07,19,15,36,29.90
2015,07,19,15,37,29.90
2015,07,19,15,38,29.90
2015,07,19,15,39,29.90
2015,07,19,15,40,29.90
2015,07,19,15,41,29.90
2015,07,19,15,42,29.90
2015,07,19,15,43,30.00
2015,07,19,15,44,30.10
2015,07,19,15,45,30.10
2015,07,19,15,46,30.20
2015,07,19,15,47,30.20
2015,07,19,15,48,30.30
2015,07,19,15,49,30.40
2015,07,19,15,50,30.50
2015,07,19,15,51,30.60
2015,07,19,15,52,30.60
2015,07,19,15,53,30.60
2015,07,19,15,54,30.50
2015,07,19,15,55,30.50
2015,07,19,15,56,30.60
2015,07,19,15,57,30.60
2015,07,19,15,58,30.70
2015,07,19,15,59,30.70
2015,07,19,16,00,30.70
2015,07,19,16,01,30.80
2015,07,19,16,02,30.90
2015,07,19,16,03,31.00
2015,07,19,16,04,31.10
2015,07,19,16,05,31.00
2015,07,19,16,06,31.00
2015,07,19,16,07,30.90
2015,07,19,16,08,30.90
2015,07,19,16,09,30.80
2015,07,19,16,10,30.80
2015,07,19,16,11,30.90
2015,07,19,16,12,30.90
2015,07,19,16,13,31.00
2015,07,19,16,14,31.10
2015,07,19,16,15,31.20
2015,07,19,16,16,31.20
2015,07,19,16,17,31.20
2015,07,19,16,18,31.20
2015,07,19,16,19,31.20
2015,07,19,16,20,31.20
2015,07,19,16,21,31.20
2015,07,19,16,22,31.20
2015,07,19,16,23,31.30
2015,07,19,16,24,31.30
2015,07,19,16,25,31.30
2015,07,19,16,26,31.40
2015,07,19,16,27,31.40
2015,07,19,16,28,31.40
2015,07,19,16,29,31.40
2015,07,19,16,30,31.30
2015,07,19,16,31,31.20
2015,07,19,16,32,31.20
2015,07,19,16,33,31.20
2015,07,19,16,34,31.20
2015,07,19,16,35,31.20
2015,07,19,16,36,31.30
2015,07,19,16,37,31.40
2015,07,19,16,38,31.50
2015,07,19,16,39,31.50
2015,07,19,16,40,31.60
2015,07,19,16,41,31.50
2015,07,19,16,42,31.40
2015,07,19,16,43,31.40
2015,07,19,16,44,31.40
2015,07,19,16,45,31.40
2015,07,19,16,46,31.50
2015,07,19,16,47,31.60
2015,07,19,16,48,31.60
2015,07,19,16,49,31.60
2015,07,19,16,50,31.60
2015,07,19,16,51,31.60
2015,07,19,16,52,31.50
2015,07,19,16,53,31.50
2015,07,19,16,54,31.60
2015,07,19,16,55,31.60
2015,07,19,16,56,31.60
2015,07,19,16,57,31.50
2015,07,19,16,58,31.70
2015,07,19,16,59,31.70
2015,07,19,17,00,31.70
2015,07,19,17,01,31.70
2015,07,19,17,02,31.70
2015,07,19,17,03,31.70
2015,07,19,17,04,31.80
2015,07,19,17,05,31.90
2015,07,19,17,06,31.90
2015,07,19,17,07,31.90
2015,07,19,17,08,31.90
2015,07,19,17,09,31.90
2015,07,19,17,10,31.90
2015,07,19,17,11,31.90
2015,07,19,17,12,32.00
2015,07,19,17,13,32.00
2015,07,19,17,14,32.00
2015,07,19,17,15,32.00
2015,07,19,17,16,32.00
2015,07,19,17,17,31.90
2015,07,19,17,18,31.80
2015,07,19,17,19,31.70
2015,07,19,17,20,31.50
2015,07,19,17,21,31.40
2015,07,19,17,22,31.30
2015,07,19,17,23,31.30
2015,07,19,17,24,31.30
2015,07,19,17,25,31.30
2015,07,19,17,26,31.30
2015,07,19,17,27,31.30
2015,07,19,17,28,31.30
2015,07,19,17,29,31.30
2015,07,19,17,30,31.30
2015,07,19,17,31,31.20
2015,07,19,17,32,31.20
2015,07,19,17,33,31.20
2015,07,19,17,34,31.30
2015,07,19,17,35,31.40
2015,07,19,17,36,31.40
2015,07,19,17,37,31.50
2015,07,19,17,38,31.60
2015,07,19,17,39,31.60
2015,07,19,17,40,31.60
2015,07,19,17,41,31.60
2015,07,19,17,42,31.50
2015,07,19,17,43,31.50
2015,07,19,17,44,31.40
2015,07,19,17,45,31.40
2015,07,19,17,46,31.40
2015,07,19,17,47,31.40
2015,07,19,17,48,31.50
2015,07,19,17,49,31.50
2015,07,19,17,50,31.60
2015,07,19,17,51,31.60
2015,07,19,17,52,31.60
2015,07,19,17,53,31.70
2015,07,19,17,54,31.70
2015,07,19,17,55,31.80
2015,07,19,17,56,31.80
2015,07,19,17,57,31.90
2015,07,19,17,58,31.90
2015,07,19,17,59,31.90
2015,07,19,18,00,31.90
2015,07,19,18,01,31.90
2015,07,19,18,02,31.80
2015,07,19,18,03,31.80
2015,07,19,18,04,31.80
2015,07,19,18,05,31.90
2015,07,19,18,06,31.90
2015,07,19,18,07,32.00
2015,07,19,18,08,32.10
2015,07,19,18,09,32.20
2015,07,19,18,10,32.30
2015,07,19,18,11,32.30
2015,07,19,18,12,32.20
2015,07,19,18,13,32.10
2015,07,19,18,14,31.90
2015,07,19,18,15,31.90
2015,07,19,18,16,31.70
2015,07,19,18,17,31.60
2015,07,19,18,18,31.50
2015,07,19,18,19,31.30
2015,07,19,18,20,31.20
2015,07,19,18,21,31.10
2015,07,19,18,22,31.10
2015,07,19,18,23,30.90
2015,07,19,18,24,30.80
2015,07,19,18,25,30.80
2015,07,19,18,26,30.70
2015,07,19,18,27,30.70
2015,07,19,18,28,30.60
2015,07,19,18,29,30.50
2015,07,19,18,30,30.40
2015,07,19,18,31,30.20
2015,07,19,18,32,30.00
2015,07,19,18,33,29.80
2015,07,19,18,34,29.60
2015,07,19,18,35,29.50
2015,07,19,18,36,29.30
2015,07,19,18,37,29.20
2015,07,19,18,38,29.10
2015,07,19,18,39,29.10
2015,07,19,18,40,29.00
2015,07,19,18,41,29.00
2015,07,19,18,42,29.00
2015,07,19,18,43,29.00
2015,07,19,18,44,29.00
2015,07,19,18,45,29.00
2015,07,19,18,46,29.00
2015,07,19,18,47,29.00
2015,07,19,18,48,29.00
2015,07,19,18,49,29.00
2015,07,19,18,50,29.00
2015,07,19,18,51,29.00
2015,07,19,18,52,29.00
2015,07,19,18,53,29.00
2015,07,19,18,54,29.10
2015,07,19,18,55,29.10
2015,07,19,18,56,29.10
2015,07,19,18,57,29.10
2015,07,19,18,58,29.10
2015,07,19,18,59,29.10
2015,07,19,19,00,29.00
2015,07,19,19,01,29.00
2015,07,19,19,02,29.00
2015,07,19,19,03,28.90
2015,07,19,19,04,28.90
2015,07,19,19,05,28.70
2015,07,19,19,06,28.60
2015,07,19,19,07,28.50
2015,07,19,19,08,28.40
2015,07,19,19,09,28.30
2015,07,19,19,10,28.20
2015,07,19,19,11,28.20
2015,07,19,19,12,28.10
2015,07,19,19,13,28.10
2015,07,19,19,14,28.00
2015,07,19,19,15,28.00
2015,07,19,19,16,27.90
2015,07,19,19,17,27.80
2015,07,19,19,18,27.70
2015,07,19,19,19,27.50
2015,07,19,19,20,27.40
2015,07,19,19,21,27.30
2015,07,19,19,22,27.20
2015,07,19,19,23,27.00
2015,07,19,19,24,26.90
2015,07,19,19,25,26.90
2015,07,19,19,26,26.80
2015,07,19,19,27,26.70
2015,07,19,19,28,26.70
2015,07,19,19,29,26.70
2015,07,19,19,30,26.70
2015,07,19,19,31,26.70
2015,07,19,19,32,26.70
2015,07,19,19,33,26.70
2015,07,19,19,34,26.70
2015,07,19,19,35,26.70
2015,07,19,19,36,26.80